Tracking 28920 objects as of 26-May-2024
HD Live streaming from Space Station
objects crossing your sky now

STARLINK-5268

Track STARLINK-5268 now!
10-day predictions
STARLINK-5268 is classified as:


NORAD ID: 54192
Int'l Code: 2022-141AM
Perigee: 546.2 km
Apogee: 547.6 km
Inclination: 53.2 °
Period: 95.4 minutes
Semi major axis: 6917 km
RCS: Unknown
Launch date: October 28, 2022
Source: United States (US)
Launch site: AIR FORCE WESTERN TEST RANGE (AFWTR)
Your satellite tracking list
Your tracking list is empty




NASA's NSSDC Master Catalog

Two Line Element Set (TLE):
1 54192U 22141AM  24146.44265487 -.00000740  00000-0 -28456-4 0  9990
2 54192  53.2174  46.3886 0001048  83.1992 276.9120 15.08829105 87387
Source of the keplerian elements: AFSPC